timestamp,MVAR,MW,kV
2014-12-08 10:00:00,0.26,1.26,10.31
2014-12-08 11:00:00,0.27,1.24,10.32
2014-12-08 12:00:00,0.26,1.46,10.36
2014-12-08 13:00:00,0.11,1.66,10.31
2014-12-08 14:00:00,0.21000000000000002,1.92,10.32
2014-12-08 15:00:00,0.28,1.8399999999999999,10.39
2014-12-08 16:00:00,0.18,2.02,10.42
2014-12-08 17:00:00,0.2,2.18,10.4
2014-12-08 18:00:00,0.09000000000000001,1.9599999999999997,10.34
2014-12-08 19:00:00,0.04000000000000001,1.82,10.36
2014-12-08 20:00:00,0.09000000000000001,1.51,10.31
2014-12-08 21:00:00,0.07,1.23,10.32
2014-12-08 22:00:00,0.010000000000000009,1.14,10.34
2014-12-08 23:00:00,0.12000000000000001,0.25,10.23
2014-12-09 00:00:00,0.07,0.33,10.17
2014-12-09 01:00:00,-0.07999999999999999,0.83,10.19
2014-12-09 02:00:00,-0.15,1.03,10.18
2014-12-09 03:00:00,-0.07999999999999999,0.8999999999999999,10.17
2014-12-09 04:00:00,-0.04000000000000001,0.9299999999999999,10.17
2014-12-09 05:00:00,0.08,0.72,10.27
2014-12-09 06:00:00,0.1,0.6799999999999999,10.32
2014-12-09 07:00:00,-0.77,-1.07,10.26
2014-12-09 08:00:00,-0.9900000000000001,-0.5,10.27
2014-12-09 09:00:00,-0.79,-0.8500000000000001,10.3
2014-12-09 10:00:00,-0.72,-1.06,10.25
2014-12-09 11:00:00,-0.68,-1.21,10.23
2014-12-09 12:00:00,-0.7100000000000001,-1.34,10.29
2014-12-09 13:00:00,-0.24999999999999997,-0.15000000000000002,10.24
2014-12-09 14:00:00,0.27,1.27,10.27
2014-12-09 15:00:00,0.42000000000000004,1.01,10.31
2014-12-09 16:00:00,0.44000000000000006,1.27,10.29
2014-12-09 17:00:00,0.53,1.48,10.27
2014-12-09 18:00:00,0.6799999999999999,0.48000000000000004,10.22
2014-12-09 19:00:00,0.73,-0.28,10.16
2014-12-09 20:00:00,0.94,-0.9400000000000001,10.34
2014-12-09 21:00:00,1.2200000000000002,-1.84,10.32
2014-12-09 22:00:00,1.4300000000000002,-2.6599999999999997,10.29
2014-12-09 23:00:00,1.4700000000000002,-3.0999999999999996,10.27
2014-12-10 00:00:00,1.27,-3.05,10.34
2014-12-10 01:00:00,1.26,-3.03,10.33
2014-12-10 02:00:00,1.24,-2.78,10.3
2014-12-10 03:00:00,1.2200000000000002,-2.7399999999999998,10.32
2014-12-10 04:00:00,1.27,-2.6399999999999997,10.32
2014-12-10 05:00:00,1.11,-1.94,10.31
2014-12-10 06:00:00,0.28,0.63,10.28
2014-12-10 07:00:00,0.33999999999999997,1.03,10.21
2014-12-10 08:00:00,0.51,0.7699999999999999,10.2
2014-12-10 09:00:00,0.43000000000000005,1.06,10.26
2014-12-10 10:00:00,0.7999999999999999,-0.010000000000000002,10.23
2014-12-10 11:00:00,1.01,-0.8200000000000001,10.31
2014-12-10 12:00:00,0.76,0.009999999999999995,10.4
2014-12-10 13:00:00,0.75,-0.33,10.25
2014-12-10 14:00:00,0.73,-0.54,10.25
2014-12-10 15:00:00,0.78,-0.010000000000000002,10.24
2014-12-10 16:00:00,0.9199999999999999,-0.22999999999999998,10.26
2014-12-10 17:00:00,1.12,-0.2,10.31
2014-12-10 18:00:00,1.37,-1.11,10.25
2014-12-10 19:00:00,1.08,-0.9700000000000001,10.35
2014-12-10 20:00:00,1.2000000000000002,-1.7,10.29
2014-12-10 21:00:00,0.61,-0.54,10.35
2014-12-10 22:00:00,0.74,-1.36,10.28
2014-12-10 23:00:00,0.42000000000000004,-1.07,10.2
2014-12-11 00:00:00,0.44000000000000006,-1.06,10.3
2014-12-11 01:00:00,0.6,-1.45,10.25
2014-12-11 02:00:00,0.7,-1.56,10.31
2014-12-11 03:00:00,0.13,0.09999999999999999,10.37
2014-12-11 04:00:00,0.09000000000000001,0.5,10.34
2014-12-11 05:00:00,0.33999999999999997,-0.060000000000000005,10.27
2014-12-11 06:00:00,0.65,-0.89,10.27
2014-12-11 07:00:00,0.12000000000000001,1.65,10.25
2014-12-11 08:00:00,0.44000000000000006,1.22,10.18
2014-12-11 09:00:00,0.36,1.3699999999999999,10.21
2014-12-11 10:00:00,0.41000000000000003,1.54,10.16
2014-12-11 11:00:00,0.48,1.3,10.19
2014-12-11 12:00:00,0.47,0.85,10.24
2014-12-11 13:00:00,0.52,0.76,10.23
2014-12-11 14:00:00,0.42000000000000004,1.6099999999999999,10.25
2014-12-11 15:00:00,0.53,1.3699999999999999,10.3
2014-12-11 16:00:00,0.77,0.42,10.29
2014-12-11 17:00:00,0.47,1.95,10.35
2014-12-11 18:00:00,0.29000000000000004,2.12,10.36
2014-12-11 19:00:00,0.14,1.73,10.23
2014-12-11 20:00:00,0.41000000000000003,0.45,10.3
2014-12-11 21:00:00,0.13,1.3499999999999999,10.31
2014-12-11 22:00:00,0.05,1.2,10.35
2014-12-11 23:00:00,0.010000000000000009,0.71,10.41
2014-12-12 00:00:00,-0.13999999999999999,0.8099999999999999,10.36
2014-12-12 01:00:00,-0.33999999999999997,0.94,10.28
2014-12-12 02:00:00,0.0,0.32,10.23
2014-12-12 03:00:00,0.14,0.08,10.23
2014-12-12 04:00:00,0.060000000000000005,0.84,10.25
2014-12-12 05:00:00,0.14,1.01,10.22
2014-12-12 06:00:00,0.12000000000000001,1.25,10.13
2014-12-12 07:00:00,0.22,1.38,10.19
2014-12-12 08:00:00,0.15000000000000002,2.1300000000000003,10.27
2014-12-12 09:00:00,0.33,1.57,10.33
2014-12-12 10:00:00,0.44000000000000006,1.14,10.28
2014-12-12 11:00:00,0.07,1.93,10.37
2014-12-12 12:00:00,0.09000000000000001,1.8699999999999999,10.44
2014-12-12 13:00:00,0.11,1.99,10.27
2014-12-12 14:00:00,0.27,1.76,10.29
2014-12-12 15:00:00,0.25,1.92,10.3
2014-12-12 16:00:00,0.37,1.9,10.24
2014-12-12 17:00:00,0.4,1.41,10.2
2014-12-12 18:00:00,0.44000000000000006,1.4,10.24
2014-12-12 19:00:00,0.12000000000000001,2.08,10.28
2014-12-12 20:00:00,0.12000000000000001,1.69,10.26
2014-12-12 21:00:00,0.33999999999999997,0.39,10.22
2014-12-12 22:00:00,0.41000000000000003,-0.13,10.25
2014-12-12 23:00:00,0.35,0.15000000000000002,10.25
2014-12-13 00:00:00,0.15000000000000002,0.5399999999999999,10.24
2014-12-13 01:00:00,0.15000000000000002,0.48000000000000004,10.26
2014-12-13 02:00:00,0.53,-1.19,10.31
2014-12-13 03:00:00,0.69,-1.9000000000000001,10.23
2014-12-13 04:00:00,0.7899999999999999,-2.0599999999999996,10.24
2014-12-13 05:00:00,0.91,-2.0599999999999996,10.21
2014-12-13 06:00:00,0.65,-0.93,10.3
2014-12-13 07:00:00,0.55,-0.060000000000000005,10.35
2014-12-13 08:00:00,0.56,0.48000000000000004,10.38
2014-12-13 09:00:00,0.5,0.97,10.35
2014-12-13 10:00:00,0.89,-0.68,10.32
2014-12-13 11:00:00,0.57,0.29000000000000004,10.39
2014-12-13 12:00:00,0.6799999999999999,-0.28,10.36
2014-12-13 13:00:00,0.7999999999999999,-0.77,10.3
2014-12-13 14:00:00,0.9199999999999999,-1.06,10.32
2014-12-13 15:00:00,0.6699999999999999,0.0,10.32
2014-12-13 16:00:00,0.58,0.6499999999999999,10.27
2014-12-13 17:00:00,0.39,1.65,10.27
2014-12-13 18:00:00,0.44000000000000006,1.39,10.26
2014-12-13 19:00:00,0.44000000000000006,0.95,10.34
2014-12-13 20:00:00,0.25,1.46,10.38
2014-12-13 21:00:00,0.11,1.5999999999999999,10.41
2014-12-13 22:00:00,0.07,1.48,10.43
2014-12-13 23:00:00,0.18,0.8999999999999999,10.42
2014-12-14 00:00:00,0.09000000000000001,1.15,10.4
2014-12-14 01:00:00,0.08,0.95,10.38
2014-12-14 02:00:00,0.04000000000000001,0.75,10.38
2014-12-14 03:00:00,0.060000000000000005,0.75,10.34
2014-12-14 04:00:00,0.15000000000000002,0.5299999999999999,10.35
2014-12-14 05:00:00,0.35,0.22000000000000003,10.34
2014-12-14 06:00:00,0.32,0.6,10.31
2014-12-14 07:00:00,0.16,1.27,10.28
2014-12-14 08:00:00,0.2,1.31,10.25
2014-12-14 09:00:00,0.33,0.7999999999999999,10.21
2014-12-14 10:00:00,0.41000000000000003,0.7899999999999999,10.2
2014-12-14 11:00:00,0.39,0.7899999999999999,10.17
2014-12-14 12:00:00,0.38,0.45,10.14
2014-12-14 13:00:00,0.38,0.37,10.15
2014-12-14 14:00:00,0.59,-0.18,10.31
2014-12-14 15:00:00,0.71,-0.18,10.33
2014-12-14 16:00:00,1.07,-0.8300000000000001,10.26
2014-12-14 17:00:00,1.12,-0.79,10.2
2014-12-14 18:00:00,1.1,-0.9,10.21
2014-12-14 19:00:00,1.06,-1.24,10.24
2014-12-14 20:00:00,1.08,-1.54,10.24
2014-12-14 21:00:00,1.1500000000000001,-1.87,10.18
2014-12-14 22:00:00,1.2100000000000002,-2.17,10.18
2014-12-14 23:00:00,1.06,-2.1599999999999997,10.25
2014-12-15 00:00:00,1.0,-2.21,10.28
2014-12-15 01:00:00,0.9299999999999999,-2.25,10.29
2014-12-15 02:00:00,0.9299999999999999,-2.2199999999999998,10.34
2014-12-15 03:00:00,0.75,-1.6700000000000002,10.35
2014-12-15 04:00:00,0.08,0.6599999999999999,10.27
2014-12-15 05:00:00,0.19,0.69,10.26
2014-12-15 06:00:00,0.41000000000000003,0.34,10.21
2014-12-15 07:00:00,0.31,1.41,10.19
2014-12-15 08:00:00,0.5,1.0999999999999999,10.21
2014-12-15 09:00:00,0.49,1.2,10.28
2014-12-15 10:00:00,0.53,1.04,10.23
2014-12-15 11:00:00,0.66,0.7699999999999999,10.25
2014-12-15 12:00:00,0.49,1.39,10.3
2014-12-15 13:00:00,0.66,0.38,10.22
2014-12-15 14:00:00,0.49,1.31,10.29
2014-12-15 15:00:00,0.76,0.24,10.3
2014-12-15 16:00:00,1.06,-0.7200000000000001,10.25
2014-12-15 17:00:00,0.96,-0.25,10.24
2014-12-15 18:00:00,0.91,-0.29,10.33
2014-12-15 19:00:00,0.77,-0.18,10.4
2014-12-15 20:00:00,0.62,0.03,10.28
2014-12-15 21:00:00,0.14,0.98,10.14
2014-12-15 22:00:00,0.060000000000000005,1.14,10.17
2014-12-15 23:00:00,0.020000000000000004,1.15,10.19
2014-12-16 00:00:00,-0.07999999999999999,1.0799999999999998,10.21
2014-12-16 01:00:00,-0.16,1.1099999999999999,10.24
2014-12-16 02:00:00,-0.12,0.87,10.2
2014-12-16 03:00:00,-0.01999999999999999,0.62,10.2
2014-12-16 04:00:00,0.13,0.63,10.17
2014-12-16 05:00:00,0.5,-0.16999999999999998,10.34
2014-12-16 06:00:00,0.63,-0.45,10.3
2014-12-16 07:00:00,0.58,0.29000000000000004,10.3
2014-12-16 08:00:00,0.52,1.14,10.3
2014-12-16 09:00:00,-0.04999999999999999,2.0900000000000003,10.19
2014-12-16 10:00:00,0.020000000000000004,2.04,10.14
2014-12-16 11:00:00,0.15000000000000002,1.92,10.14
2014-12-16 12:00:00,0.33999999999999997,1.51,10.16
2014-12-16 13:00:00,0.31,1.38,10.13
2014-12-16 14:00:00,0.43000000000000005,1.3,10.27
2014-12-16 15:00:00,0.57,0.7899999999999999,10.32
2014-12-16 16:00:00,0.7899999999999999,0.31,10.27
2014-12-16 17:00:00,0.69,1.02,10.33
2014-12-16 18:00:00,0.45999999999999996,2.0700000000000003,10.41
2014-12-16 19:00:00,0.48,1.2,10.38
2014-12-16 20:00:00,0.64,0.12000000000000001,10.33
2014-12-16 21:00:00,0.5,0.3,10.33
2014-12-16 22:00:00,0.49,0.039999999999999994,10.4
2014-12-16 23:00:00,0.52,-0.5700000000000001,10.35
2014-12-17 00:00:00,0.75,-1.51,10.35
2014-12-17 01:00:00,0.65,-1.1600000000000001,10.39
2014-12-17 02:00:00,0.52,-0.81,10.38
2014-12-17 03:00:00,0.53,-0.91,10.34
2014-12-17 04:00:00,0.21000000000000002,0.5499999999999999,10.34
2014-12-17 05:00:00,0.17,1.24,10.36
2014-12-17 06:00:00,0.13,1.3699999999999999,10.27
2014-12-17 07:00:00,0.14,1.77,10.29
2014-12-17 08:00:00,0.18,2.1300000000000003,10.33
2014-12-17 09:00:00,0.30000000000000004,1.99,10.38
2014-12-17 10:00:00,0.22,1.92,10.34
2014-12-17 11:00:00,0.38,1.63,10.34
2014-12-17 12:00:00,0.41000000000000003,1.3499999999999999,10.38
2014-12-17 13:00:00,0.30000000000000004,1.55,10.35
2014-12-17 14:00:00,0.39,1.43,10.36
2014-12-17 15:00:00,0.43000000000000005,1.39,10.4
2014-12-17 16:00:00,0.5,1.76,10.42
2014-12-17 17:00:00,0.42000000000000004,2.4000000000000004,10.36
2014-12-17 18:00:00,0.28,2.18,10.3
2014-12-17 19:00:00,0.21000000000000002,1.79,10.28
2014-12-17 20:00:00,0.17,1.47,10.19
2014-12-17 21:00:00,0.17,1.26,10.17
2014-12-17 22:00:00,0.08,0.95,10.17
2014-12-17 23:00:00,0.060000000000000005,0.6,10.19
2014-12-18 00:00:00,-0.009999999999999995,0.6699999999999999,10.21
2014-12-18 01:00:00,-0.13,0.72,10.23
2014-12-18 02:00:00,-0.12,0.76,10.15
2014-12-18 03:00:00,-0.03,0.5,10.2
2014-12-18 04:00:00,0.17,0.22000000000000003,10.25
2014-12-18 05:00:00,0.35,0.19,10.23
2014-12-18 06:00:00,0.35,0.62,10.21
2014-12-18 07:00:00,0.58,0.25,10.16
2014-12-18 08:00:00,0.66,0.16999999999999998,10.11
2014-12-18 09:00:00,0.56,0.6399999999999999,10.26
2014-12-18 10:00:00,0.64,0.59,10.26
2014-12-18 11:00:00,0.66,0.5,10.25
2014-12-18 12:00:00,0.61,0.3,10.3
2014-12-18 13:00:00,0.55,0.51,10.32
2014-12-18 14:00:00,0.48,0.96,10.37
2014-12-18 15:00:00,0.53,1.01,10.39
2014-12-18 16:00:00,0.52,1.27,10.41
2014-12-18 17:00:00,0.38,2.02,10.38
2014-12-18 18:00:00,0.33999999999999997,1.97,10.36
2014-12-18 19:00:00,0.48,0.8899999999999999,10.3
2014-12-18 20:00:00,0.73,-0.63,10.15
2014-12-18 21:00:00,0.9,-1.31,10.13
2014-12-18 22:00:00,1.1400000000000001,-2.09,10.21
2014-12-18 23:00:00,0.89,-1.7,10.31
2014-12-19 00:00:00,0.28,-0.28,10.24
2014-12-19 01:00:00,0.21000000000000002,-0.21000000000000002,10.28
2014-12-19 02:00:00,0.26,-0.42,10.27
2014-12-19 03:00:00,0.23,-0.1,10.26
2014-12-19 04:00:00,0.22,0.06,10.2
2014-12-19 05:00:00,0.38,-0.24,10.17
2014-12-19 06:00:00,0.58,-0.25,10.35
2014-12-19 07:00:00,0.48,0.71,10.25
2014-12-19 08:00:00,0.59,0.72,10.24
2014-12-19 09:00:00,0.55,0.7,10.2
2014-12-19 10:00:00,0.47,1.02,10.2
2014-12-19 11:00:00,0.9299999999999999,-0.63,10.21
2014-12-19 12:00:00,1.06,-1.11,10.28
2014-12-19 13:00:00,1.27,-1.59,10.36
2014-12-19 14:00:00,1.2100000000000002,-1.5,10.28
2014-12-19 15:00:00,1.24,-1.6600000000000001,10.34
2014-12-19 16:00:00,1.1900000000000002,-1.12,10.33
2014-12-19 17:00:00,1.25,-0.7200000000000001,10.37
2014-12-19 18:00:00,1.1400000000000001,-0.5900000000000001,10.37
2014-12-19 19:00:00,1.34,-1.6400000000000001,10.29
2014-12-19 20:00:00,0.84,-0.49,10.37
2014-12-19 21:00:00,0.7,-0.44,10.35
2014-12-19 22:00:00,0.82,-0.9600000000000001,10.35
2014-12-19 23:00:00,0.57,-0.67,10.33
2014-12-20 00:00:00,0.85,-1.79,10.26
2014-12-20 01:00:00,0.69,-1.5,10.3
2014-12-20 02:00:00,0.94,-2.1399999999999997,10.27
2014-12-20 03:00:00,0.9,-1.98,10.28
2014-12-20 04:00:00,0.88,-2.01,10.26
2014-12-20 05:00:00,1.1800000000000002,-2.3499999999999996,10.27
2014-12-20 06:00:00,0.88,-1.29,10.28
2014-12-20 07:00:00,0.91,-1.1500000000000001,10.27
2014-12-20 08:00:00,0.9199999999999999,-0.9,10.28
2014-12-20 09:00:00,1.07,-1.04,10.32
2014-12-20 10:00:00,1.2200000000000002,-1.44,10.26
2014-12-20 11:00:00,0.98,-0.92,10.26
2014-12-20 12:00:00,0.71,-0.26,10.25
2014-12-20 13:00:00,0.95,-1.03,10.27
2014-12-20 14:00:00,1.11,-1.4000000000000001,10.22
2014-12-20 15:00:00,1.51,-1.93,10.19
2014-12-20 16:00:00,1.51,-1.61,10.16
2014-12-20 17:00:00,1.1700000000000002,-0.5900000000000001,10.31
2014-12-20 18:00:00,1.11,-0.62,10.38
2014-12-20 19:00:00,0.83,-0.39,10.33
2014-12-20 20:00:00,0.56,-0.030000000000000002,10.27
2014-12-20 21:00:00,0.59,-0.42,10.28
2014-12-20 22:00:00,0.49,-0.25,10.26
2014-12-20 23:00:00,0.39,-0.27,10.23
2014-12-21 00:00:00,0.41000000000000003,-0.68,10.2
2014-12-21 01:00:00,0.42000000000000004,-0.8,10.23
2014-12-21 02:00:00,0.37,-0.67,10.29
2014-12-21 03:00:00,0.33999999999999997,-0.42,10.33
2014-12-21 04:00:00,0.30000000000000004,-0.09,10.34
2014-12-21 05:00:00,0.5,-0.51,10.31
2014-12-21 06:00:00,0.52,-0.25,10.28
2014-12-21 07:00:00,0.44999999999999996,0.35000000000000003,10.27
2014-12-21 08:00:00,0.48,0.7,10.23
2014-12-21 09:00:00,0.39,1.06,10.24
2014-12-21 10:00:00,0.44999999999999996,0.7899999999999999,10.22
2014-12-21 11:00:00,0.51,0.37,10.19
2014-12-21 12:00:00,0.45999999999999996,0.5399999999999999,10.18
2014-12-21 13:00:00,0.49,0.27,10.22
2014-12-21 14:00:00,0.42000000000000004,0.5499999999999999,10.22
2014-12-21 15:00:00,0.56,0.19,10.19
2014-12-21 16:00:00,0.82,-0.19,10.33
2014-12-21 17:00:00,1.02,-0.42,10.26
2014-12-21 18:00:00,1.1,-0.62,10.28
2014-12-21 19:00:00,0.94,-0.52,10.39
2014-12-21 20:00:00,0.86,-0.5700000000000001,10.42
2014-12-21 21:00:00,0.74,-0.5,10.33
2014-12-21 22:00:00,0.64,-0.5700000000000001,10.34
2014-12-21 23:00:00,0.49,-0.31,10.23
2014-12-22 00:00:00,0.57,-0.8,10.26
2014-12-22 01:00:00,0.9199999999999999,-1.6300000000000001,10.31
2014-12-22 02:00:00,0.94,-1.71,10.34
2014-12-22 03:00:00,0.75,-1.1700000000000002,10.38
2014-12-22 04:00:00,0.49,-0.37,10.37
2014-12-22 05:00:00,0.57,-0.42,10.32
2014-12-22 06:00:00,0.97,-1.25,10.21
2014-12-22 07:00:00,1.23,-1.51,10.26
2014-12-22 08:00:00,1.2100000000000002,-0.9500000000000001,10.36
2014-12-22 09:00:00,0.97,-0.55,10.38
2014-12-22 10:00:00,1.01,-0.56,10.34
2014-12-22 11:00:00,1.12,-0.8200000000000001,10.32
2014-12-22 12:00:00,1.09,-0.7000000000000001,10.39
2014-12-22 13:00:00,1.1700000000000002,-1.02,10.36
2014-12-22 14:00:00,0.97,-0.7000000000000001,10.22
2014-12-22 15:00:00,0.83,-0.18,10.29
2014-12-22 16:00:00,0.94,-0.27,10.31
2014-12-22 17:00:00,0.9,0.25,10.35
2014-12-22 18:00:00,0.82,0.42,10.41
2014-12-22 19:00:00,0.57,0.59,10.26
2014-12-22 20:00:00,0.47,0.44,10.26
2014-12-22 21:00:00,0.44000000000000006,0.37,10.29
2014-12-22 22:00:00,0.27,0.85,10.35
2014-12-22 23:00:00,0.22,0.69,10.39
2014-12-23 00:00:00,0.23,0.46,10.39
2014-12-23 01:00:00,0.23,0.41000000000000003,10.38
2014-12-23 02:00:00,0.30000000000000004,-0.060000000000000005,10.36
2014-12-23 03:00:00,0.26,0.009999999999999995,10.37
2014-12-23 04:00:00,0.36,-0.010000000000000002,10.34
2014-12-23 05:00:00,0.43000000000000005,0.03,10.31
2014-12-23 06:00:00,0.48,0.28,10.25
2014-12-23 07:00:00,0.57,0.3,10.13
2014-12-23 08:00:00,0.51,0.7,10.11
2014-12-23 09:00:00,0.51,0.82,10.16
2014-12-23 10:00:00,0.59,0.75,10.16
2014-12-23 11:00:00,0.65,0.6399999999999999,10.12
2014-12-23 12:00:00,0.94,-0.42,10.28
2014-12-23 13:00:00,0.72,0.29000000000000004,10.31
2014-12-23 14:00:00,0.63,0.86,10.32
2014-12-23 15:00:00,0.7999999999999999,0.34,10.37
2014-12-23 16:00:00,0.76,0.82,10.38
2014-12-23 17:00:00,0.57,1.89,10.41
2014-12-23 18:00:00,0.44000000000000006,1.8499999999999999,10.31
2014-12-23 19:00:00,0.43000000000000005,1.52,10.37
2014-12-23 20:00:00,0.36,1.52,10.34
2014-12-23 21:00:00,0.33999999999999997,1.3699999999999999,10.36
2014-12-23 22:00:00,0.07,1.73,10.42
2014-12-23 23:00:00,0.05,1.3399999999999999,10.44
2014-12-24 00:00:00,-0.009999999999999995,1.24,10.45
2014-12-24 01:00:00,-0.16,1.23,10.31
2014-12-24 02:00:00,-0.30000000000000004,1.38,10.37
2014-12-24 03:00:00,-0.30000000000000004,1.3699999999999999,10.38
2014-12-24 04:00:00,-0.29000000000000004,1.46,10.35
2014-12-24 05:00:00,-0.21,1.5799999999999998,10.29
2014-12-24 06:00:00,-0.21,1.68,10.26
2014-12-24 07:00:00,-0.21,1.94,10.25
2014-12-24 08:00:00,-0.15,2.2600000000000002,10.22
2014-12-24 09:00:00,-0.09,2.35,10.19
2014-12-24 10:00:00,0.26,2.0300000000000002,10.25
2014-12-24 11:00:00,0.12000000000000001,2.27,10.32
2014-12-24 12:00:00,0.13,1.95,10.29
2014-12-24 13:00:00,0.27,1.3599999999999999,10.26
2014-12-24 14:00:00,0.36,1.73,10.27
2014-12-24 15:00:00,0.64,0.57,10.28
2014-12-24 16:00:00,0.54,1.5,10.26
2014-12-24 17:00:00,0.5,1.78,10.25
2014-12-24 18:00:00,0.5,1.26,10.34
2014-12-24 19:00:00,0.35,1.14,10.4
2014-12-24 20:00:00,-0.24000000000000002,2.12,10.38
2014-12-24 21:00:00,-0.27,1.95,10.31
2014-12-24 22:00:00,-0.31999999999999995,1.89,10.34
2014-12-24 23:00:00,-0.35,1.79,10.33
2014-12-25 00:00:00,-0.15,1.55,10.24
2014-12-25 01:00:00,0.04000000000000001,0.96,10.24
2014-12-25 02:00:00,0.21000000000000002,0.19,10.21
2014-12-25 03:00:00,0.28,-0.04,10.18
2014-12-25 04:00:00,0.44000000000000006,-0.42,10.22
2014-12-25 05:00:00,0.5,-0.27,10.17
2014-12-25 06:00:00,0.82,-0.99,10.31
2014-12-25 07:00:00,0.77,-0.49,10.32
2014-12-25 08:00:00,0.6699999999999999,0.09999999999999999,10.3
2014-12-25 09:00:00,0.76,0.020000000000000004,10.33
2014-12-25 10:00:00,0.58,1.1099999999999999,10.45
2014-12-25 11:00:00,0.53,1.49,10.33
2014-12-25 12:00:00,0.43000000000000005,1.5799999999999998,10.31
2014-12-25 13:00:00,0.26,1.9999999999999998,10.34
2014-12-25 14:00:00,0.23,2.04,10.36
2014-12-25 15:00:00,0.23,2.1100000000000003,10.36
2014-12-25 16:00:00,0.30000000000000004,2.18,10.31
2014-12-25 17:00:00,0.18,2.5700000000000003,10.32
2014-12-25 18:00:00,0.08,2.64,10.33
2014-12-25 19:00:00,0.14,2.3800000000000003,10.37
2014-12-25 20:00:00,-0.03,2.37,10.4
2014-12-25 21:00:00,-0.18999999999999997,2.39,10.43
2014-12-25 22:00:00,-0.27,2.21,10.28
2014-12-25 23:00:00,-0.33999999999999997,2.01,10.28
2014-12-26 00:00:00,-0.31999999999999995,1.91,10.29
2014-12-26 01:00:00,-0.33999999999999997,1.78,10.31
2014-12-26 02:00:00,-0.23,1.5999999999999999,10.3
2014-12-26 03:00:00,-0.13999999999999999,1.42,10.3
2014-12-26 04:00:00,-0.13999999999999999,1.54,10.3
2014-12-26 05:00:00,-0.04999999999999999,1.6199999999999999,10.24
2014-12-26 06:00:00,0.11,1.5899999999999999,10.21
2014-12-26 07:00:00,0.12000000000000001,1.74,10.15
2014-12-26 08:00:00,0.27,1.99,10.23
2014-12-26 09:00:00,0.31,1.91,10.33
2014-12-26 10:00:00,0.27,1.9699999999999998,10.31
2014-12-26 11:00:00,0.16,2.29,10.31
2014-12-26 12:00:00,0.09000000000000001,2.17,10.39
2014-12-26 13:00:00,0.09000000000000001,2.07,10.43
2014-12-26 14:00:00,0.020000000000000004,2.04,10.44
2014-12-26 15:00:00,0.020000000000000004,2.08,10.44
2014-12-26 16:00:00,0.07,2.25,10.38
2014-12-26 17:00:00,0.1,2.45,10.36
2014-12-26 18:00:00,0.11,2.4000000000000004,10.37
2014-12-26 19:00:00,0.23,2.12,10.37
2014-12-26 20:00:00,0.09000000000000001,2.0100000000000002,10.4
2014-12-26 21:00:00,0.010000000000000009,1.93,10.41
2014-12-26 22:00:00,-0.13,1.99,10.41
2014-12-26 23:00:00,0.010000000000000009,1.57,10.43
2014-12-27 00:00:00,-0.07,1.5999999999999999,10.42
2014-12-27 01:00:00,-0.13999999999999999,1.51,10.37
2014-12-27 02:00:00,-0.13,1.3499999999999999,10.33
2014-12-27 03:00:00,-0.22,1.52,10.34
2014-12-27 04:00:00,-0.24999999999999997,1.5999999999999999,10.35
2014-12-27 05:00:00,-0.09,1.6099999999999999,10.31
2014-12-27 06:00:00,0.07,1.78,10.27
2014-12-27 07:00:00,-0.13,2.1,10.26
2014-12-27 08:00:00,-0.13999999999999999,2.3800000000000003,10.31
2014-12-27 09:00:00,-0.16,2.5700000000000003,10.29
2014-12-27 10:00:00,-0.15,2.52,10.28
2014-12-27 11:00:00,-0.07999999999999999,2.5700000000000003,10.32
2014-12-27 12:00:00,-0.1,2.5500000000000003,10.36
2014-12-27 13:00:00,-0.16,2.46,10.37
2014-12-27 14:00:00,-0.19999999999999998,2.45,10.4
2014-12-27 15:00:00,-0.13999999999999999,2.5700000000000003,10.35
2014-12-27 16:00:00,-0.09,2.72,10.3
2014-12-27 17:00:00,-0.1,2.9400000000000004,10.28
2014-12-27 18:00:00,-0.04000000000000001,2.7600000000000002,10.35
2014-12-27 19:00:00,-0.16,2.4400000000000004,10.3
2014-12-27 20:00:00,-0.18000000000000002,2.3200000000000003,10.24
2014-12-27 21:00:00,-0.18000000000000002,2.2600000000000002,10.27
2014-12-27 22:00:00,-0.1,1.89,10.28
2014-12-27 23:00:00,-0.07999999999999999,1.69,10.24
2014-12-28 00:00:00,-0.1,1.53,10.27
2014-12-28 01:00:00,-0.24000000000000002,1.65,10.29
2014-12-28 02:00:00,-0.24000000000000002,1.5899999999999999,10.33
2014-12-28 03:00:00,-0.23,1.57,10.34
2014-12-28 04:00:00,-0.23,1.74,10.33
2014-12-28 05:00:00,-0.18999999999999997,1.91,10.27
2014-12-28 06:00:00,-0.21,2.1,10.22
2014-12-28 07:00:00,-0.23,2.22,10.19
2014-12-28 08:00:00,-0.22,2.43,10.14
2014-12-28 09:00:00,-0.07999999999999999,2.66,10.31
2014-12-28 10:00:00,0.03,2.37,10.32
2014-12-28 11:00:00,0.1,2.08,10.35
2014-12-28 12:00:00,0.09000000000000001,2.1300000000000003,10.36
2014-12-28 13:00:00,-0.06,2.15,10.39
2014-12-28 14:00:00,0.09000000000000001,1.67,10.38
2014-12-28 15:00:00,0.44999999999999996,1.15,10.28
2014-12-28 16:00:00,0.58,0.9299999999999999,10.15
2014-12-28 17:00:00,0.59,1.39,10.31
2014-12-28 18:00:00,0.56,1.72,10.39
2014-12-28 19:00:00,0.47,1.47,10.36
2014-12-28 20:00:00,0.21000000000000002,2.0700000000000003,10.31
2014-12-28 21:00:00,0.11,2.12,10.35
2014-12-28 22:00:00,-0.04999999999999999,1.97,10.21
2014-12-28 23:00:00,0.2,1.28,10.21
2014-12-29 00:00:00,0.16,1.05,10.19
2014-12-29 01:00:00,0.1,1.1099999999999999,10.19
2014-12-29 02:00:00,0.060000000000000005,1.23,10.21
2014-12-29 03:00:00,-0.10999999999999999,1.42,10.25
2014-12-29 04:00:00,-0.28,1.5899999999999999,10.26
2014-12-29 05:00:00,-0.24000000000000002,1.74,10.22
2014-12-29 06:00:00,-0.19999999999999998,1.98,10.16
2014-12-29 07:00:00,-0.13999999999999999,2.2800000000000002,10.23
2014-12-29 08:00:00,-0.04999999999999999,2.52,10.24
2014-12-29 09:00:00,-0.07999999999999999,2.58,10.27
2014-12-29 10:00:00,0.05,2.48,10.32
2014-12-29 11:00:00,0.18,2.29,10.3
2014-12-29 12:00:00,0.30000000000000004,1.91,10.29
2014-12-29 13:00:00,0.35,1.57,10.3
2014-12-29 14:00:00,0.27,1.8,10.29
2014-12-29 15:00:00,0.32,1.52,10.28
2014-12-29 16:00:00,0.57,1.05,10.2
2014-12-29 17:00:00,0.61,0.94,10.21
2014-12-29 18:00:00,0.61,0.6399999999999999,10.19
2014-12-29 19:00:00,0.52,0.6699999999999999,10.23
2014-12-29 20:00:00,0.55,0.41000000000000003,10.25
2014-12-29 21:00:00,0.42000000000000004,0.69,10.31
2014-12-29 22:00:00,0.36,0.51,10.31